Watsonville, CA

8:10 AM PDT on July 24, 2017 (GMT -0700)
Watsonville Municipal

Weather History for KWVI - February, 2014

Change the Weather History Date:

Wednesday, February 26, 2014

  Actual Average Record
Temperature  
Mean Temperature 56 °F 52 °F  
Max Temperature 61 °F 61 °F 77 °F (2002)
Min Temperature 51 °F 44 °F 32 °F (1964)
Degree Days  
Heating Degree Days 9    
Month to date heating degree days 302  
Since 1 July heating degree days 1724  
Cooling Degree Days 0    
Month to date cooling degree days 0  
Year to date cooling degree days 0  
Growing Degree Days 6 (Base 50)    
Moisture  
Dew Point 52 °F    
Average Humidity 89    
Maximum Humidity 100    
Minimum Humidity 77    
Precipitation  
Precipitation 0.75 in - 1.51 in (1983)
Month to date precipitation 3.01  
Year to date precipitation 3.06  
Since 1 July precipitation 4.13  
Sea Level Pressure  
Sea Level Pressure 29.88 in    
Wind  
Wind Speed 6 mph (SE)    
Max Wind Speed 18 mph    
Max Gust Speed 44 mph    
Visibility 9 miles    
Events Rain , Thunderstorm    
T = Trace of Precipitation, MM = Missing Value Source: NWS Daily Summary

Daily Weather History Graph

Daily Weather History Graph

Search for Another Location

Airport or City:

Trip Planner

Search our weather history database for the weather conditions in past years. The results will help you decide how hot, cold, wet, or windy it might be!

Date:

Astronomy

Feb. 26, 2014 Rise Set
Actual Time 6:41 AM PST 5:58 PM PST
Civil Twilight 6:15 AM PST 6:24 PM PST
Nautical Twilight 5:45 AM PST 6:54 PM PST
Astronomical Twilight 5:15 AM PST 7:24 PM PST
Moon 4:29 AM PST (2/26) 3:22 PM PST (2/26)
Length of Visible Light 12h 08m
Length of Day
11h 16m
Waning Crescent, 9% of the Moon is Illuminated
Feb 26
Waning Crescent
Mar 1
New
Mar 8
First Quarter
Mar 16
Full
Mar 23
Last Quarter

Hourly Weather History & Observations

Time (PST) Temp. Dew Point Humidity Pressure Visibility Wind Dir Wind Speed Gust Speed Precip Events Conditions
12:20 AM 53.6 °F 46.4 °F 77% 29.99 in 10.0 mi West 3.5 mph - N/A   Overcast
12:53 AM 53.1 °F 48.0 °F 83% 29.99 in 10.0 mi WSW 6.9 mph - N/A   Overcast
1:53 AM 54.0 °F 48.0 °F 80% 29.97 in 10.0 mi NNW 3.5 mph - N/A   Overcast
2:38 AM 55.4 °F 48.2 °F 77% 29.97 in 10.0 mi Calm Calm - N/A   Overcast
2:53 AM 54.0 °F 48.0 °F 80% 29.98 in 10.0 mi Calm Calm - N/A   Mostly Cloudy
3:20 AM 53.6 °F 48.2 °F 82% 29.99 in 10.0 mi SSW 4.6 mph - N/A   Mostly Cloudy
3:30 AM 53.6 °F 48.2 °F 82% 29.99 in 10.0 mi South 6.9 mph - N/A   Mostly Cloudy
3:53 AM 53.1 °F 46.0 °F 77% 29.98 in 10.0 mi East 4.6 mph - N/A   Scattered Clouds
4:53 AM 53.1 °F 46.9 °F 80% 29.94 in 10.0 mi NNE 4.6 mph - N/A   Mostly Cloudy
5:53 AM 53.1 °F 46.9 °F 80% 29.95 in 10.0 mi Calm Calm - N/A   Overcast
6:53 AM 53.1 °F 46.9 °F 80% 29.96 in 10.0 mi Calm Calm - N/A   Overcast
7:53 AM 52.0 °F 48.9 °F 89% 29.97 in 8.0 mi NW 3.5 mph - 0.02 in Rain Light Rain
8:53 AM 53.1 °F 50.0 °F 89% 29.97 in 9.0 mi NNW 3.5 mph - 0.11 in Rain Light Rain
9:53 AM 54.0 °F 51.1 °F 90% 29.97 in 10.0 mi Calm Calm - 0.02 in Rain Light Rain
10:53 AM 55.9 °F 52.0 °F 87% 29.96 in 10.0 mi ENE 3.5 mph - 0.01 in Rain Light Rain
11:53 AM 57.0 °F 52.0 °F 83% 29.92 in 10.0 mi Calm Calm - 0.00 in   Overcast
12:53 PM 59.0 °F 53.1 °F 81% 29.89 in 10.0 mi ENE 3.5 mph - 0.00 in Rain Light Rain
1:53 PM 59.0 °F 54.0 °F 83% 29.85 in 8.0 mi ENE 4.6 mph - 0.02 in Rain Light Rain
2:53 PM 60.1 °F 53.1 °F 78% 29.84 in 9.0 mi ESE 8.1 mph - 0.03 in Rain Rain
3:30 PM 57.2 °F 55.4 °F 94% 29.85 in 2.5 mi SE 15.0 mph - 0.11 in Rain Heavy Rain
3:43 PM 57.2 °F 55.4 °F 94% 29.83 in 3.0 mi East 15.0 mph 21.9 mph 0.18 in Rain Heavy Rain
3:53 PM 57.0 °F 55.9 °F 96% 29.83 in 4.0 mi ESE 12.7 mph - 0.20 in Rain Rain
4:53 PM 57.0 °F 57.0 °F 100% 29.81 in 5.0 mi East 10.4 mph - 0.12 in Rain Heavy Rain
5:53 PM 57.0 °F 57.0 °F 100% 29.78 in 6.0 mi East 6.9 mph - 0.08 in Rain Rain
6:53 PM 57.0 °F 55.9 °F 96% 29.75 in 10.0 mi East 5.8 mph - 0.02 in Rain Light Rain
7:22 PM 57.2 °F 55.4 °F 94% 29.76 in 5.0 mi SE 12.7 mph - 0.04 in Rain , Thunderstorm Rain
7:38 PM 57.2 °F 55.4 °F 94% 29.77 in 10.0 mi ESE 9.2 mph - 0.05 in Rain Light Rain
7:53 PM 57.9 °F 55.9 °F 93% 29.76 in 10.0 mi SE 12.7 mph 20.7 mph 0.05 in Rain Light Rain
8:53 PM 57.0 °F 57.0 °F 100% 29.78 in 10.0 mi SSE 11.5 mph - 0.01 in Rain Light Rain
9:15 PM 57.2 °F 57.2 °F 100% 29.80 in 5.0 mi South 11.5 mph - 0.05 in Rain Light Rain
9:28 PM 55.4 °F 55.4 °F 100% 29.80 in 10.0 mi South 11.5 mph - 0.05 in   Overcast
9:53 PM 57.0 °F 55.9 °F 96% 29.81 in 10.0 mi South 13.8 mph 20.7 mph 0.05 in   Overcast
10:53 PM 57.0 °F 55.9 °F 96% 29.81 in 10.0 mi South 13.8 mph - N/A   Mostly Cloudy
11:31 PM 57.2 °F 55.4 °F 94% 29.82 in 10.0 mi SSW 13.8 mph - 0.01 in   Overcast
11:53 PM 55.9 °F 55.9 °F 100% 29.82 in 10.0 mi SSW 15.0 mph 21.9 mph 0.01 in   Overcast